www.pogodaiklimat.ru

Погода и климат >> Архив погоды >> Канада >> Baker Lake Climate


ПОГОДА в Baker Lake Climate

  • Прогноз погоды в Baker Lake Climate
  • Монитор погоды в Baker Lake Climate
  • Климат города

АРХИВ ПОГОДЫ в Baker Lake Climate

Время (UTC), дата Ветер
(напр.,м/с)
 
Видим.   Явления Облачность Т
(С)
Тd
(С)
f
(%)
Тe
(С)
Тes
(С)
Комфортность P
(гПа)
Po
(гПа)
Тmin
(С)
Tmax
(С)
R
(мм)
R24
(мм)
S
(см)
00 18.05 СЗ 7 н/о н/о -8.8 -12.0 78 -18 -18 1024.2 1017.5 -11.1 -8.7
03 18.05 СЗ 7 н/о н/о -9.4 -12.3 79 -19 -19 1024.1 1017.3
06 18.05 СЗ 4 н/о н/о -10.7 -13.1 82 -17 -17 1024.2 1017.5 -11.1 -8.7 19
09 18.05 СЗ 2 н/о н/о -14.7 -16.6 85 -20 -20 1024.1 1017.3
12 18.05 СЗ 2 н/о н/о -14.8 -17.4 81 -20 -20 1024.4 1017.6 -15.4 -8.7 3
15 18.05 СЗ 3 н/о н/о -10.8 -14.1 77 -16 -16 1023.8 1017.1
18 18.05 З 3 н/о н/о -7.3 -11.1 74 -12 -12 1022.9 1016.2 -15.4 -7.2
21 18.05 З 4 н/о н/о -3.7 -8.1 71 -9 -9 1022.2 1015.5
00 19.05 ЮЗ 5 н/о н/о -2.9 -6.5 76 -10 -10 1020.2 1013.5 -15.4 -2.3
03 19.05 ЮЗ 3 н/о н/о -4.4 -8.0 76 -9 -9 1018.3 1011.6
06 19.05 З 4 н/о н/о -4.3 -8.5 72 -10 -10 1015.9 1009.3 -15.4 -2.1 6
09 19.05 ЮЗ 3 н/о н/о -5.0 -6.9 86 -10 -10 1014.1 1007.5
12 19.05 Ю 2 н/о {осадки} н/о -4.4 -5.7 91 -8 -8 1010.5 1004.0 -5.3 -2.1 2 4
15 19.05 З 2 н/о н/о -1.6 -4.2 82 -5 -5 1010.0 1003.5 1
18 19.05 С 16 н/о н/о -7.7 -9.8 85 -20 -20 1011.3 1004.6 -7.8 -0.4 1
21 19.05 С 19 н/о {осадки} н/о -8.5 -10.8 83 -22 -22 1013.5 1006.8 0.3
00 20.05 С 12 н/о {осадки} н/о -9.3 -12.3 79 -21 -21 1015.9 1009.3 -9.4 -0.4 0.3
03 20.05 С 9 н/о н/о -9.6 -12.5 79 -20 -20 1016.7 1010.0
06 20.05 СЗ 10 н/о н/о -11.0 -14.1 78 -22 -22 1017.7 1011.0 -11.0 -0.4 20
09 20.05 СЗ 7 н/о н/о -11.2 -14.0 80 -20 -20 1017.8 1011.1
12 20.05 СЗ 6 н/о н/о -10.8 -13.5 80 -20 -20 1017.6 1010.9 -11.3 -0.4 3
15 20.05 СЗ 9 н/о н/о -9.8 -12.3 82 -20 -20 1017.3 1010.6
18 20.05 СЗ 9 н/о н/о -8.6 -11.7 78 -19 -19 1017.4 1010.7 -11.3 -8.5
21 20.05 СЗ 9 н/о н/о -7.3 -10.4 78 -17 -17 1017.7 1011.0
00 21.05 СЗ 7 н/о н/о -7.2 -10.5 77 -16 -16 1018.1 1011.5 -11.3 -6.7
03 21.05 СЗ 5 н/о н/о -8.1 -10.9 80 -15 -15 1017.6 1010.9
06 21.05 СЗ 7 н/о н/о -8.4 -11.1 81 -17 -17 1017.9 1011.2 -11.3 -6.7 21
09 21.05 СЗ 6 н/о н/о -9.0 -11.3 83 -17 -17 1018.6 1011.9
12 21.05 СЗ 5 н/о н/о -8.5 -10.9 83 -16 -16 1020.0 1013.3 -9.0 -6.7 2
15 21.05 С 5 н/о н/о -7.0 -9.9 80 -15 -15 1020.8 1014.1
18 21.05 С 5 н/о н/о -5.2 -9.0 75 -12 -12 1021.6 1014.9 -9.0 -5.0
21 21.05 С 5 н/о н/о -4.0 -8.0 74 -11 -11 1022.5 1015.8
00 22.05 С 6 н/о н/о -4.7 -9.3 70 -12 -12 1022.8 1016.1 -9.0 -3.8
03 22.05 СЗ 2 н/о н/о -5.8 -8.6 81 -9 -9 1023.4 1016.7
06 22.05 З 2 н/о н/о -6.3 -9.2 80 -11 -11 1023.8 1017.1 -9.0 -3.8 7
09 22.05 З 2 н/о н/о -6.6 -9.9 77 -11 -11 1023.9 1017.2
12 22.05 З 3 н/о н/о -5.9 -9.9 73 -11 -11 1024.3 1017.6 -6.7 -3.8 2
15 22.05 ЮЗ 3 н/о н/о -5.2 -9.6 71 -11 -11 1023.8 1017.1
18 22.05 ЮЗ 4 н/о н/о -4.9 -9.2 72 -11 -11 1022.5 1015.9 -6.7 -4.6
21 22.05 Ю 5 н/о н/о -4.8 -8.4 76 -12 -12 1020.9 1014.3
00 23.05 ЮВ 7 н/о н/о -5.6 -7.0 90 -14 -14 1018.2 1011.6 -6.7 -4.5 0.5
03 23.05 ЮВ 8 н/о н/о -5.7 -6.9 91 -15 -15 1015.8 1009.2 3
06 23.05 ЮВ 8 н/о {осадки} н/о -5.5 -6.7 91 -15 -15 1013.1 1006.5 -6.7 -4.5 5 6
09 23.05 В 12 н/о н/о -5.2 -6.4 91 -16 -16 1010.1 1003.5 0.2
12 23.05 В 10 н/о {осадки} н/о -4.3 -5.5 91 -14 -14 1008.8 1002.3 -5.7 -4.5 0.2 14
15 23.05 В 10 н/о н/о -2.9 -4.1 91 -12 -12 1007.7 1001.2
18 23.05 ЮВ 8 н/о н/о -1.6 -3.2 89 -10 -10 1007.4 1000.9 -5.7 -1.5
21 23.05 В 5 н/о н/о -0.7 -2.5 88 -7 -7 1008.1 1001.5
00 24.05 В 3 н/о н/о -0.6 -2.3 88 -6 -6 1008.5 1002.0 -5.5 -0.3
03 24.05 В 3 н/о н/о -0.7 -2.1 90 -5 -5 1008.7 1002.2
06 24.05 В 3 н/о н/о -1.6 -2.5 94 -6 -6 1009.3 1002.7 -5.5 -0.3 9
09 24.05 СВ 3 н/о н/о -1.9 -3.1 91 -7 -7 1010.6 1004.0
12 24.05 С 3 н/о н/о -1.7 -2.9 91 -7 -7 1012.5 1005.9 -1.9 -0.3 6
15 24.05 С 6 н/о н/о -0.5 -2.3 88 -7 -7 1014.1 1007.6
18 24.05 С 8 н/о н/о +0.2 -3.0 79 -7 -7 1016.7 1010.2 -1.9 +0.5
21 24.05 С 12 н/о н/о -1.6 -4.6 80 -11 -11 1019.1 1012.5

 

Местоположение метеостанции Baker Lake Climate (Канада): широта 64.32 долгота -96.00 высота над уровнем моря 51 м.

В архиве по умолчанию представлена погода в Baker Lake Climate за последнюю неделю. Архивные данные за месяц целиком и за предыдущие месяцы, начиная с января 2011 года, Вы можете получить, выбрав интересующий диапазон дат из раскрывающегося списка и нажав кнопку "Ввод!".


*Определитесь, кто Вы:
робот инопланетянин человек

Внимание! Время в таблицах - всемирное. Для получения местного времени необходимо прибавить поправку, которая в Baker Lake Climate равна -6 ч.

Смотрите также архив погоды в соседних городах и на ближайших метеорологических станциях:

Погода в Baker Lake Airport (Канада) (4 км)
Погода в Back River MAPS (Канада) (197 км)
Погода в Rankin Inlet (Канада) (255 км)
Погода в Dubawnt Lake (Канада) (305 км)
Погода в Robertson Lake (Канада) (316 км)
Погода в Wager Bay (Канада) (353 км)
Погода в Arviat Climate (Канада) (372 км)
Погода в Arviat (Канада) (372 км)
Погода в Arviat Airport (Канада) (372 км)
Погода в Hanbury River ARS (Канада) (454 км)

Пояснения к столбцам:

Ветер - указаны скорость ветра в м/с - средняя за 10 мин, порывы в срок и между сроками (в фигурных скобках) и направление, откуда дует ветер: С - северный, СВ - северо-восточный, В - восточный, ЮВ - юго-восточный, Ю - южный, ЮЗ - юго-западный, З - западный, СЗ - северо-западный.
Видимость - горизонтальная дальность видимости в метрах или километрах. При видимости от 1 до 10 км при отсутствии осадков обычно наблюдается дымка, при ухудшении видимости до 1 км и менее - туман. В сухую погоду видимость может ухудшаться дымом, пылью или мглою.
Явления - указаны атмосферные явления, наблюдавшиеся в срок или в последний час перед сроком; фигурными скобками обозначены явления, наблюдавшиеся между сроками (за 1-3 часа до срока); квадратными скобками обозначены град или гололедные отложения с указанием их диаметра в мм.
Облачность - указаны через наклонную черту общая и нижняя облачность в баллах и высота нижней границы облаков в метрах; квадратными скобками обозначены формы облаков: Ci - перистые, Cs - перисто-слоистые, Cc - перисто-кучевые, Ac - высококучевые, As - высокослоистые, Sc - слоисто-кучевые, Ns - слоисто-дождевые, Cu - кучевые, Cb - кучево-дождевые. Подробнее классификацию облаков см. в Атласе облаков (PDF).
T - Температура воздуха - температура, измеренная на высоте 2 м над землей.
Td - Температура точки росы - температура, при понижении до которой содержащийся в воздухе водяной пар достигнет насыщения.
f - Относительная влажность воздуха - влажноcть воздуха, измеренная на высоте 2 м над землей.
Te - Эффективная температура - температура, которую ощущает одетый по сезону человек в тени. Характеристика душности погоды. При расчете учитывается влияние влажности воздуха и скорости ветра на теплоощущения человека.
Tes - Эффективная температура на солнце - температура, которую ощущает человек, с поправкой на солнечный нагрев. Характеристика знойности погоды. Зависит от высоты солнца над горизонтом, облачности и скорости ветра. Ночью, в пасмурную погоду, а также при ветре 12 м/с и более поправка равна нулю.
P - Атмосферное давление - приведенное к уровню моря атмосферное давление.
Po - Атмосферное давление - измеренное на уровне метеостанции атмосферное давление.
Tmin - Минимальная температура - минимум температуры воздуха на высоте 2 м над землей.
Tmax - Максимальная температура - максимум температуры воздуха на высоте 2 м над землей.
R - Количество осадков - Количество выпавших осадков за период времени, мм. При наведении курсора мыши на число - период времени, за который выпало указанное количество осадков.
R24 - Количество осадков - Количество выпавших осадков за 24 часа, мм.
S - Снежный покров - Высота снежного покрова, см. При наведении курсора мыши на число - состояние снежного покрова и степень покрытия местности в баллах.